Date String (YYYY-MM-DD hh:mm:ss) UTC,Instrument flags,Ambient pressure (hPa),Sample flow (lpm),Bypass flow (lpm),Sample temperature (°C),Ambient temperature (°C),ASC tube jacket temperature (°C),LED temperature (°C),Box temperature (°C),Sample RH (%),Span deviation,Mass concentration (μg/m³),Mass concentration (μg/m³),Mass concentration (μg/m³)
DateTimeUTC,F1_M11,P_M11,Q1_M11,Q2_M11,T1_M11,T2_M11,T3_M11,T4_M11,T5_M11,U1_M11,ZSPAN_M11,X0_M11,X2_M11,X1_M11
2022-03-30 22:00:00,,0816.4,5.00,0.00,23.5,22.6,00.0,32.5,25.3,05.9,0000.0,0004.26,0002.16,0001.20
2022-03-30 22:01:00,,0816.4,5.00,0.00,23.5,22.7,00.0,32.5,25.3,06.1,0000.0,0004.29,0002.18,0001.19
2022-03-30 22:02:00,,0816.4,5.00,0.00,23.5,22.6,00.0,32.5,25.2,06.0,0000.0,0004.32,0002.18,0001.18
2022-03-30 22:03:00,,0816.4,5.01,0.00,23.5,22.6,00.0,32.5,25.1,06.1,0000.0,0004.25,0002.18,0001.18
2022-03-30 22:04:00,,0816.4,4.99,0.00,23.5,22.6,00.0,32.5,25.2,06.1,0000.0,0004.29,0002.22,0001.19
2022-03-30 22:05:00,,0816.4,4.99,0.00,23.5,22.6,00.0,32.5,25.3,06.1,0000.0,0004.19,0002.17,0001.17
2022-03-30 22:06:00,,0816.4,5.01,0.00,23.5,22.7,00.0,32.5,25.3,06.4,0000.0,0004.47,0002.17,0001.18
2022-03-30 22:07:00,,0816.4,5.01,0.00,23.6,22.7,00.0,32.5,25.4,06.5,0000.0,0004.77,0002.21,0001.18
2022-03-30 22:08:00,,0816.4,4.99,0.00,23.6,22.7,00.0,32.5,25.4,06.4,0000.0,0004.86,0002.21,0001.17
2022-03-30 22:09:00,,0816.4,5.00,0.00,23.6,22.7,00.0,32.5,25.4,06.1,0000.0,0005.03,0002.23,0001.16
2022-03-30 22:10:00,,0816.4,5.00,0.00,23.6,22.8,00.0,32.5,25.5,06.1,0000.0,0005.02,0002.21,0001.14
2022-03-30 22:11:00,,0816.4,5.00,0.00,23.6,22.8,00.0,32.5,25.5,06.4,0000.0,0004.98,0002.19,0001.14
2022-03-30 22:12:00,,0816.4,5.01,0.00,23.6,22.8,00.0,32.5,25.5,06.3,0000.0,0004.95,0002.18,0001.14
2022-03-30 22:13:00,,0816.5,5.00,0.00,23.6,22.9,00.0,32.5,25.5,06.2,0000.0,0005.01,0002.18,0001.14
2022-03-30 22:14:00,,0816.4,5.00,0.00,23.6,22.9,00.0,32.6,25.5,06.5,0000.0,0005.00,0002.17,0001.14
2022-03-30 22:15:00,,0816.4,5.00,0.00,23.7,22.9,00.0,32.6,25.5,06.4,0000.0,0004.75,0002.07,0001.13
2022-03-30 22:16:00,,0816.4,5.00,0.00,23.7,22.9,00.0,32.6,25.5,06.3,0000.0,0005.06,0002.08,0001.13
2022-03-30 22:17:00,,0816.4,5.00,0.00,23.7,22.9,00.0,32.6,25.5,06.5,0000.0,0005.45,0002.13,0001.14
2022-03-30 22:18:00,,0816.4,5.00,0.00,23.7,22.9,00.0,32.6,25.5,06.3,0000.0,0005.20,0002.08,0001.14
2022-03-30 22:19:00,,0816.5,4.99,0.00,23.7,22.9,00.0,32.6,25.5,06.5,0000.0,0004.99,0002.07,0001.15
2022-03-30 22:20:00,,0816.4,5.00,0.00,23.7,22.9,00.0,32.6,25.5,06.5,0000.0,0004.87,0002.07,0001.15
2022-03-30 22:21:00,,0816.4,5.00,0.00,23.7,22.9,00.0,32.6,25.5,06.4,0000.0,0004.75,0002.05,0001.15
2022-03-30 22:22:00,,0816.4,5.01,0.00,23.7,22.9,00.0,32.6,25.4,06.4,0000.0,0004.78,0002.04,0001.14
2022-03-30 22:23:00,,0816.4,5.01,0.00,23.7,22.9,00.0,32.6,25.4,06.5,0000.0,0005.72,0002.04,0001.15
2022-03-30 22:24:00,,0816.6,5.00,0.00,23.7,22.8,00.0,32.6,25.5,06.5,0000.0,0005.66,0002.03,0001.15
2022-03-30 22:25:00,,0816.4,4.99,0.00,23.7,22.8,00.0,32.6,25.5,06.5,0000.0,0005.65,0002.04,0001.15
2022-03-30 22:26:00,,0816.4,4.99,0.00,23.7,22.9,00.0,32.6,25.5,06.5,0000.0,0005.65,0002.04,0001.16
2022-03-30 22:27:00,,0816.4,5.00,0.00,23.7,22.9,00.0,32.7,25.6,06.6,0000.0,0005.40,0002.06,0001.17
2022-03-30 22:28:00,,0816.4,5.00,0.00,23.7,22.9,00.0,32.7,25.5,06.5,0000.0,0004.67,0002.06,0001.18
2022-03-30 22:29:00,,0816.4,5.01,0.00,23.8,22.9,00.0,32.7,25.5,06.4,0000.0,0004.74,0002.11,0001.18
2022-03-30 22:30:00,,0816.3,4.99,0.00,23.8,22.9,00.0,32.7,25.5,06.6,0000.0,0004.70,0002.07,0001.18
2022-03-30 22:31:00,,0816.3,5.00,0.00,23.8,22.9,00.0,32.7,25.6,06.3,0000.0,0004.62,0002.03,0001.18
2022-03-30 22:32:00,,0816.3,5.01,0.00,23.8,22.9,00.0,32.7,25.5,06.1,0000.0,0004.63,0002.02,0001.17
2022-03-30 22:33:00,,0816.4,5.00,0.00,23.7,22.9,00.0,32.7,25.5,06.3,0000.0,0004.83,0002.11,0001.18
2022-03-30 22:34:00,,0816.4,5.00,0.00,23.7,22.9,00.0,32.7,25.5,06.3,0000.0,0004.08,0002.12,0001.19
2022-03-30 22:35:00,,0816.3,5.00,0.00,23.7,22.9,00.0,32.7,25.5,06.3,0000.0,0004.01,0002.12,0001.19
2022-03-30 22:36:00,,0816.3,4.99,0.00,23.7,22.9,00.0,32.7,25.5,06.3,0000.0,0004.18,0002.13,0001.18
2022-03-30 22:37:00,,0816.4,5.00,0.00,23.7,22.9,00.0,32.7,25.5,06.2,0000.0,0004.38,0002.17,0001.17
2022-03-30 22:38:00,,0816.4,5.00,0.00,23.7,22.9,00.0,32.7,25.5,06.1,0000.0,0004.42,0002.13,0001.15
2022-03-30 22:39:00,,0816.3,5.00,0.00,23.7,22.9,00.0,32.7,25.5,06.2,0000.0,0004.36,0002.07,0001.15
2022-03-30 22:40:00,,0816.4,5.00,0.00,23.7,22.9,00.0,32.7,25.5,06.5,0000.0,0004.39,0002.05,0001.12
2022-03-30 22:41:00,,0816.4,5.01,0.00,23.7,22.9,00.0,32.7,25.5,06.3,0000.0,0004.49,0002.06,0001.13
2022-03-30 22:42:00,,0816.3,5.01,0.00,23.7,22.9,00.0,32.7,25.5,06.4,0000.0,0004.62,0002.07,0001.12
2022-03-30 22:43:00,,0816.3,5.00,0.00,23.7,22.9,00.0,32.7,25.5,06.6,0000.0,0004.65,0002.07,0001.12
2022-03-30 22:44:00,,0816.3,5.00,0.00,23.7,22.9,00.0,32.7,25.5,06.7,0000.0,0004.51,0002.01,0001.12
2022-03-30 22:45:00,,0816.4,4.99,0.00,23.7,22.9,00.0,32.7,25.5,06.7,0000.0,0004.42,0002.00,0001.12
2022-03-30 22:46:00,,0816.3,5.00,0.00,23.7,22.9,00.0,32.7,25.5,06.8,0000.0,0004.32,0001.98,0001.13
2022-03-30 22:47:00,,0816.4,5.00,0.00,23.7,22.9,00.0,32.7,25.5,06.5,0000.0,0004.69,0001.99,0001.13
2022-03-30 22:48:00,,0816.4,4.99,0.00,23.7,22.9,00.0,32.7,25.5,06.4,0000.0,0004.85,0002.01,0001.14
2022-03-30 22:49:00,,0816.4,4.99,0.00,23.7,22.9,00.0,32.7,25.4,06.5,0000.0,0004.68,0002.00,0001.14
2022-03-30 22:50:00,,0816.3,5.02,0.00,23.7,22.9,00.0,32.7,25.4,06.6,0000.0,0005.88,0002.06,0001.14
2022-03-30 22:51:00,,0816.4,4.99,0.00,23.7,22.9,00.0,32.7,25.5,06.6,0000.0,0007.28,0002.21,0001.17
2022-03-30 22:52:00,,0816.3,5.00,0.00,23.7,22.8,00.0,32.7,25.4,06.6,0000.0,0007.35,0002.24,0001.18
2022-03-30 22:53:00,,0816.4,4.99,0.00,23.7,22.8,00.0,32.7,25.4,06.6,0000.0,0007.46,0002.32,0001.18
2022-03-30 22:54:00,,0816.3,4.99,0.00,23.7,22.8,00.0,32.7,25.5,06.5,0000.0,0007.44,0002.35,0001.19
2022-03-30 22:55:00,,0816.4,5.00,0.00,23.7,22.8,00.0,32.7,25.5,06.7,0000.0,0007.44,0002.35,0001.19
2022-03-30 22:56:00,,0816.4,5.01,0.00,23.7,22.8,00.0,32.7,25.5,06.9,0000.0,0007.41,0002.30,0001.17
2022-03-30 22:57:00,,0816.4,5.00,0.00,23.7,22.8,00.0,32.7,25.5,06.8,0000.0,0007.40,0002.29,0001.17
2022-03-30 22:58:00,,0816.4,5.00,0.00,23.7,22.8,00.0,32.7,25.5,06.6,0000.0,0008.99,0002.51,0001.19
2022-03-30 22:59:00,,0816.4,5.00,0.00,23.7,22.8,00.0,32.7,25.5,06.8,0000.0,0009.64,0002.60,0001.21
